Weather History for Minneapolis, MN

Change the Weather History Date:

Tuesday, May 29, 2012

  Actual Average Record
Temperature  
Mean Temperature 58 °F 63 °F  
Max Temperature 64 °F 73 °F 94 °F (2006)
Min Temperature 52 °F 53 °F 33 °F (1965)
Degree Days  
Heating Degree Days 7 4  
Month to date heating degree days 95 210  
Since 1 July heating degree days 5824 7528  
Cooling Degree Days 0 2  
Month to date cooling degree days 80 34  
Year to date cooling degree days 96 39  
Growing Degree Days 8 (Base 50)    
Moisture  
Dew Point 43 °F    
Average Humidity 59    
Maximum Humidity 66    
Minimum Humidity 51    
Precipitation  
Precipitation T in 0.10 in 2.49 in (1942)
Month to date precipitation 9.34 3.13  
Year to date precipitation 15.85 9.35  
Snow  
Snow 0.00 in 0.00 in 0.00 in ()
Month to date snowfall T 0.0  
Since 1 July snowfall 22.3 54.4  
Snow Depth 0.00 in    
Sea Level Pressure  
Sea Level Pressure 29.83 in    
Wind  
Wind Speed 14 mph (West)    
Max Wind Speed 25 mph    
Max Gust Speed 31 mph    
Visibility 10 miles    
Events      
T = Trace of Precipitation, MM = Missing Value Source: NWS Daily Summary

Daily Weather History Graph

Daily Weather History Graph

Search for Another Location

Airport:

Trip Planner

Search our weather history database for the weather conditions in past years. The results will help you decide how hot, cold, wet, or windy it might be!

Date:

Astronomy

May. 29, 2012 Rise Set
Actual Time 5:31 AM CDT 8:49 PM CDT
Civil Twilight 4:55 AM CDT 9:26 PM CDT
Nautical Twilight 4:08 AM CDT 10:12 PM CDT
Astronomical Twilight 3:10 AM CDT 11:11 PM CDT
Moon 2:06 PM CDT (5/29) 1:41 AM CDT (5/29)
Length of Visible Light 16h 30m
Length of Day
15h 18m
First Quarter, 59% of the Moon is Illuminated
May 29
First Quarter
Jun 4
Full
Jun 11
Last Quarter
Jun 19
New
Jun 26
First Quarter

Hourly Weather History & Observations

Time (CDT) Temp. Dew Point Humidity Pressure Visibility Wind Dir Wind Speed Gust Speed Precip Events Conditions
12:53 AM 60.1 °F 46.0 °F 60% 29.74 in 10.0 mi SW 6.9 mph - N/A   Partly Cloudy
1:53 AM 59.0 °F 46.0 °F 62% 29.74 in 10.0 mi WSW 8.1 mph - N/A   Clear
2:53 AM 57.0 °F 45.0 °F 64% 29.73 in 10.0 mi WSW 8.1 mph - N/A   Clear
3:53 AM 55.9 °F 45.0 °F 67% 29.74 in 10.0 mi WSW 6.9 mph - N/A   Clear
4:53 AM 55.9 °F 44.1 °F 64% 29.75 in 10.0 mi WSW 11.5 mph - N/A   Partly Cloudy
5:53 AM 55.0 °F 42.1 °F 62% 29.77 in 10.0 mi WSW 10.4 mph - N/A   Partly Cloudy
6:53 AM 55.0 °F 42.1 °F 62% 29.78 in 10.0 mi West 13.8 mph 20.7 mph N/A   Scattered Clouds
7:53 AM 55.9 °F 43.0 °F 62% 29.78 in 10.0 mi WSW 20.7 mph 29.9 mph N/A   Scattered Clouds
8:53 AM 57.0 °F 44.1 °F 62% 29.80 in 10.0 mi West 17.3 mph 25.3 mph N/A   Mostly Cloudy
9:53 AM 57.9 °F 43.0 °F 58% 29.81 in 10.0 mi West 18.4 mph - N/A   Overcast
10:53 AM 59.0 °F 43.0 °F 55% 29.82 in 10.0 mi WNW 20.7 mph 29.9 mph N/A   Mostly Cloudy
11:53 AM 60.1 °F 44.1 °F 55% 29.83 in 10.0 mi West 18.4 mph 25.3 mph N/A   Overcast
12:53 PM 60.1 °F 45.0 °F 57% 29.84 in 10.0 mi West 17.3 mph 27.6 mph N/A   Mostly Cloudy
1:53 PM 62.1 °F 44.1 °F 52% 29.84 in 10.0 mi West 17.3 mph 25.3 mph N/A   Mostly Cloudy
2:53 PM 62.1 °F 46.0 °F 56% 29.85 in 10.0 mi West 12.7 mph - N/A   Overcast
3:53 PM 62.1 °F 46.0 °F 56% 29.85 in 10.0 mi West 16.1 mph 24.2 mph N/A   Overcast
4:53 PM 62.1 °F 46.0 °F 56% 29.85 in 10.0 mi West 12.7 mph - N/A   Mostly Cloudy
5:53 PM 62.1 °F 45.0 °F 53% 29.85 in 10.0 mi West 12.7 mph 20.7 mph N/A   Mostly Cloudy
6:53 PM 59.0 °F 44.1 °F 58% 29.88 in 10.0 mi WNW 10.4 mph 19.6 mph 0.00 in   Overcast
7:53 PM 57.0 °F 39.9 °F 53% 29.90 in 10.0 mi NW 15.0 mph 23.0 mph N/A   Overcast
8:53 PM 55.9 °F 39.9 °F 55% 29.91 in 10.0 mi WNW 15.0 mph 21.9 mph N/A   Mostly Cloudy
9:53 PM 53.1 °F 37.0 °F 55% 29.93 in 10.0 mi WNW 10.4 mph - N/A   Partly Cloudy
10:53 PM 52.0 °F 39.0 °F 61% 29.94 in 10.0 mi WNW 9.2 mph - N/A   Mostly Cloudy
11:53 PM 52.0 °F 39.9 °F 63% 29.95 in 10.0 mi NW 8.1 mph - N/A   Mostly Cloudy